AirNav   Everest Fuels
 
 1088 users online  

KHBZ Heber Springs Municipal Airport
Heber Springs, Arkansas, USA

GOING TO HEBER SPRINGS?


FAA INFORMATION EFFECTIVE 22 APRIL 2021

Location

FAA Identifier: HBZ
Lat/Long: 35-30-42.0980N 092-00-46.8340W
35-30.701633N 092-00.780567W
35.5116939,-92.0130094
(estimated)
Elevation: 632.3 ft. / 192.7 m (surveyed)
Variation: 00E (2020)
From city: 2 miles NE of HEBER SPRINGS, AR
Time zone: UTC -5 (UTC -6 during Standard Time)
Zip code: 72543

Airport Operations

Airport use: Open to the public
Activation date: 10/1968
Control tower: no
ARTCC: MEMPHIS CENTER
FSS: JONESBORO FLIGHT SERVICE STATION
NOTAMs facility: JBR (NOTAM-D service available)
Attendance: 0800-1700
Pattern altitude: 1430.3 ft. MSL
Wind indicator: lighted
Segmented circle: yes
Lights: DUSK-DAWN. ACTVT REIL RWY 06/24 AND MIRL RWY 06/24 - CTAF.
Beacon: white-green (lighted land airport)
Operates sunset to sunrise.

Airport Communications

CTAF/UNICOM: 122.7
  • APCH/DEP SVC PRVDD BY MEMPHIS ARTCC ON FREQS 126.85/281.55 (BRINKLEY RCAG).

Airport Services

Fuel available: 100LL JET-A
SELF-SERVICE FUEL AVBL 24 HRS WITH CREDIT CARD (100LL & JET A)
Parking: tiedowns
Airframe service: MAJOR
Powerplant service: MAJOR
Bottled oxygen: NONE
Bulk oxygen: NONE

Runway Information

Runway 6/24

Dimensions: 4002 x 75 ft. / 1220 x 23 m
Surface: asphalt, in good condition
Weight bearing capacity: 
Single wheel: 12.5
Runway edge lights: medium intensity
RUNWAY 6  RUNWAY 24
Latitude: 35-30.534500N35-30.868667N
Longitude: 092-01.128333W092-00.432833W
Elevation: 620.4 ft.631.9 ft.
Traffic pattern: leftleft
Runway heading: 060240
Markings: nonprecision, in good conditionnonprecision, in good condition
Visual slope indicator: 2-light PAPI on left (3.00 degrees glide path)2-light PAPI on left (3.00 degrees glide path)
Runway end identifier lights: yesyes
Touchdown point: yes, no lightsyes, no lights
Obstructions: 34 ft. trees, 705 ft. from runway, 180 ft. right of centerline, 14:1 slope to clear15 ft. trees, 825 ft. from runway, 41 ft. both sides of centerline, 25:1 slope to clear

Airport Ownership and Management from official FAA records

Ownership: Publicly-owned
Owner: CITY OF HEBER SPRINGS
1001 WEST MAIN
HEBER SPRINGS, AR 72543
Phone 501-362-3635
Manager: CHARLES EVANS
2111 AIRPORT RD
HEBER SPRINGS, AR 72543
Phone 501-362-3294

Airport Operational Statistics

Aircraft based on the field: 32
Single engine airplanes: 29
Multi engine airplanes: 3
    
Aircraft operations: avg 53/day *
77% local general aviation
21% transient general aviation
3% military
* for 12-month period ending 31 July 2017

Additional Remarks

RWY 06/24 NO LINE OF SIGHT BTN RY ENDS.
FOR CD CTC MEMPHIS ARTCC AT 901-368-8453/8449.

Instrument Procedures

NOTE: All procedures below are presented as PDF files. If you need a reader for these files, you should download the free Adobe Reader.

NOT FOR NAVIGATION. Please procure official charts for flight.
FAA instrument procedures published for use from 22 April 2021 at 0901Z to 20 May 2021 at 0900z.

 
IAPs - Instrument Approach Procedures
RNAV (GPS) RWY 06   download (253KB)
RNAV (GPS) RWY 24   download (269KB)
NOTE: Special Take-Off Minimums/Departure Procedures apply   download (408KB)

Other nearby airports with instrument procedures:

2A2 - Holley Mountain Airpark (21 nm NW)
7M2 - Mountain View Airport-Wilcox Memorial Field (22 nm N)
KBVX - Batesville Regional Airport (22 nm NE)
KCCA - Clinton Municipal Airport (22 nm W)
KSRC - Searcy Municipal Airport (23 nm SE)
 
Loc | Ops | Rwys | IFR | FBO | Links
Com | Nav | Svcs | Stats | Notes
Area around KHBZ (Heber Springs Municipal Airport)
 
Road maps at: MapQuest Bing Google
 
Aerial photo
WARNING: Photo may not be current or correct
Aerial photo of KHBZ (Heber Springs Municipal Airport)
Photo courtesy of the Arkansas Department of Aeronautics
Taken in the Spring of 2007

Do you have a better or more recent aerial photo of Heber Springs Municipal Airport that you would like to share? If so, please send us your photo.

 
Sectional chart

 
Airport distance calculator
Flying to Heber Springs Municipal Airport? Find the distance to fly.

From to KHBZ

Sunrise and sunset
Times for 15-May-2021
 Local
(UTC-5)
 Zulu
(UTC)
Morning civil twilight05:3610:36
Sunrise06:0411:04
Sunset20:0501:05
Evening civil twilight20:3301:33

Current date and time
Zulu (UTC)  15-May-2021 22:34:25
Local (UTC-5)  15-May-2021 17:34:25
 
METAR
KSRC 
21nm SE 
152156Z AUTO 20008KT 10SM CLR 26/13 A3009 RMK AO2 SLP189 T02610128
KBVX 
22nm NE 
152156Z AUTO 19008KT 10SM SCT060 24/12 A3010 RMK AO2 SLP192 T02440122
KCCA 
22nm W 
152215Z AUTO 00000KT 9SM OVC060 24/14 A3008 RMK AO2
KLRF 
36nm S 
152155Z 19011KT 7SM SCT040 BKN200 27/14 A3008 RMK SLPNO WND DATA ESTMD ALSTG ESTMD
KCXW 
40nm SW 
152215Z AUTO 19007G13KT 10SM CLR 26/13 A3005 RMK A01
KM19 
42nm E 
152156Z AUTO 00000KT 10SM BKN060 25/11 A3011 RMK AO2 SLP195 T02500111
TAF
KLRF 
36nm S 
151505Z 1515/1621 14009KT 9999 SCT110 BKN180 QNH3019INS BECMG 1516/1517 19012KT 9999 SCT055 BKN110 BKN180 QNH3005INS BECMG 1522/1523 16009KT 9999 BKN050 BKN160 QNH3006INS BECMG 1602/1603 VRB03KT 9999 BKN045 BKN150 QNH3007INS BECMG 1614/1615 18010G15KT 9999 BKN035 BKN130 QNH3002INS TX28/1520Z TN16/1611Z
NOTAMs
Click for the latest NOTAMs
NOTAMs are issued by the DoD/FAA and will open in a separate window not controlled by AirNav.

 

 
 

FBO, Fuel Providers, and Aircraft Ground Support

  
 Business Name 
 
 Contact 
 
 Services / Description 
 
Fuel Prices
 
Comments
  
Heber Springs Municipal Airport 501-362-3294
no information available

If you are affiliated with Heber Springs Municipal Airport and would like to show here your services, contact info, web link, logo, and more, click here
100LL Jet A
SS $4.29 $3.79 
 Updated 27-Apr-2021
 
   2 read write
SS=Self service
Update Fuel Prices
 

Would you like to see your business listed on this page?

 If your business provides an interesting product or service to pilots, flight crews, aircraft, or users of the Heber Springs Municipal Airport, you should consider listing it here.  To start the listing process, click on the button below
 
Add a business
 

Other Pages about Heber Springs Municipal Airport

Update a link
 
Copyright © AirNav, LLC. All rights reserved. Privacy Policy  Contact